Location: Borotín
(49.5055°N, 14.6142°E)
Time: 11:50:45
(UTC+00:00)

Cosmos 1603 - Pass Details

Date: 27 May 2022
Orbit: 829 x 861 km, 71.0° (Epoch: 26 June)

Event Time Altitude Azimuth Distance (km) Brightness Sun altitude
Exits shadow 02:06:09 - 198° (SSW) 2,736 5.8 -7.9°
Reaches altitude 10° 02:06:55 10° 197° (SSW) 2,443 5.6 -7.8°
Maximum altitude 02:12:30 71° 115° (ESE) 889 3.9 -7.2°
Drops below altitude 10° 02:18:10 10° 32° (NNE) 2,481 7.7 -6.6°
Sets 02:20:38 0° 30° (NNE) 3,425 8.7 -6.3°
